星链-1798 (STARLINK-1798 )

导读 | 豆包AI

STARLINK-1798是美国太空探索技术公司星链星座的一颗卫星,由美国在2020年10月24日发射升空,属于星链互联网星座组网卫星,主要为全球用户提供低延迟、高速率的宽带互联网服务,部署在近地轨道,是星链大规模组网进程中的组成部分。

基本信息
目录编号:
46779
目录名称:
STARLINK-1798
国际标识:
2020-074AS
轨道中心:
EARTH
卫星名称:
星链-1798
卫星全名:
星链-1798 (STARLINK-1798 )
卫星状态:
已陨落 最后检测时间 2025-03-08
发射日期:
2020-10-24 UTC
国别 :
美国 (US)
星等 :
--
轨道信息
数据来源 国际轨道数据
星历时间: 2025-03-08T11:24:38+0800
轨道信息已过期418天
半长轴: 6517.32km
偏心率: 0.0002112
轨道倾角: 53.022°
近地点辐角 281.063°
升交点赤经 110.442°
平近点角 176.002°
近地点: 137.808km
远地点: 140.562km
周期: 87.270分钟
每日圈数: 16.500581
详细信息
固有亮度:
5
最大亮度:
2.5
卫星平台:
Starlink V1.0
覆盖范围:
全球
运营商:
太空探索技术公司
运营商所在国:
美国
制造商(研发单位):
太空探索技术公司
制造商所在国:
美国
使用方式:
暂无
卫星简介
星链(Starlink)计划是由太空探索技术公司(SpaceX)提出的一个巨型低轨卫星互联网星座项目,计划在2019年至2024年间在太空搭建由约1.2万颗卫星组成的“星链”网络,其中1584颗将部署在地球上空550千米处的近地轨道,并从2020年开始工作。该卫星仍在工作。